User: anonymous   Login
Location: Unspecified
(0.0000°N, 0.0000°E)
Time: 07:53:01
(UTC+00:00)
Language:

PAYLOAD E - Orbit

View from above orbital plane
View from above orbital plane
View from above satellite
View from above satellite

Ground track
Ground track

The orbit data is extracted from the following two-line orbital elements,

1 27059U 01058E   17328.40616012  .00000015  00000-0  24164-4 0  9995
2 27059  82.5446  54.8530 0002699 102.8571 257.2821 12.61480720732559
Epoch (UTC): 24 November 2017 09:44:52
Eccentricity: 0.0002699
inclination: 82.5446°
perigee height: 1415 km
apogee height: 1419 km
right ascension of ascending node: 54.8530°
argument of perigee: 102.8571°
revolutions per day: 12.61480720
mean anomaly at epoch: 257.2821°
orbit number at epoch: 73255

The dashed part of the orbit path shows where the satellite is in the earth's shadow,  

DLR